| time (UTC) | temp F | wind direction | speed MPH | gust MPH | rain 1hr in | rain 24hr in | rain mn in | humidity % | barometer mb |
| 20260506080152 | 76 | 112 | 8.0 | 11.0 | 0.00 | 0.00 | 0.00 | 89 | 1009.7 |
| 20260506073136 | 76 | 128 | 7.0 | 13.0 | 0.00 | 0.00 | 0.00 | 89 | 1010.1 |
| 20260506072632 | 76 | 120 | 8.0 | 13.0 | 0.00 | 0.00 | 0.00 | 89 | 1010.1 |
| 20260506072130 | 76 | 152 | 6.0 | 11.0 | 0.00 | 0.00 | 0.00 | 89 | 1010.1 |
| 20260506071628 | 76 | 119 | 8.0 | 11.0 | 0.00 | 0.00 | 0.00 | 89 | 1010.4 |
| 20260506071125 | 76 | 128 | 8.0 | 15.0 | 0.00 | 0.00 | 0.00 | 89 | 1010.4 |
| 20260506070622 | 76 | 134 | 10.0 | 15.0 | 0.00 | 0.00 | 0.00 | 89 | 1010.1 |
| 20260506070119 | 76 | 125 | 9.0 | 15.0 | 0.00 | 0.00 | 0.00 | 88 | 1010.4 |
| 20260506062056 | 76 | 96 | 10.0 | 17.0 | 0.00 | 0.00 | 0.00 | 89 | 1010.4 |
| 20260506061552 | 76 | 111 | 8.0 | 11.0 | 0.00 | 0.00 | 0.00 | 89 | 1010.4 |
| 20260506061050 | 76 | 118 | 10.0 | 12.0 | 0.00 | 0.00 | 0.00 | 89 | 1010.1 |
| 20260506060548 | 76 | 102 | 9.0 | 10.0 | 0.00 | 0.00 | 0.00 | 89 | 1010.4 |
| 20260506051017 | 77 | 111 | 8.0 | 12.0 | 0.00 | 0.00 | 0.00 | 88 | 1010.4 |
| 20260506050515 | 77 | 108 | 8.0 | 12.0 | 0.00 | 0.00 | 0.00 | 88 | 1010.4 |
| 20260506045005 | 77 | 120 | 10.0 | 15.0 | 0.00 | 0.00 | 0.00 | 87 | 1010.1 |
| 20260506044504 | 77 | 114 | 11.0 | 17.0 | 0.00 | 0.00 | 0.00 | 87 | 1010.4 |
| 20260506044000 | 77 | 107 | 12.0 | 16.0 | 0.00 | 0.00 | 0.00 | 87 | 1010.4 |
| 20260506043457 | 77 | 107 | 11.0 | 14.0 | 0.00 | 0.00 | 0.00 | 87 | 1010.1 |
| 20260506042955 | 78 | 113 | 11.0 | 16.0 | 0.00 | 0.00 | 0.00 | 87 | 1010.1 |
| 20260506042454 | 78 | 112 | 12.0 | 14.0 | 0.00 | 0.00 | 0.00 | 87 | 1010.1 |
| 20260506041951 | 78 | 127 | 9.0 | 15.0 | 0.00 | 0.00 | 0.00 | 86 | 1010.1 |
| 20260506041450 | 78 | 112 | 11.0 | 13.0 | 0.00 | 0.00 | 0.00 | 86 | 1010.1 |
| 20260506040947 | 78 | 113 | 10.0 | 12.0 | 0.00 | 0.00 | 0.00 | 86 | 1010.1 |
| 20260506040444 | 78 | 109 | 14.0 | 16.0 | 0.00 | 0.00 | 0.00 | 86 | 1009.7 |
| 20260506035940 | 78 | 124 | 12.0 | 15.0 | 0.00 | 0.00 | 0.00 | 85 | 1009.7 |
| 20260506035437 | 78 | 106 | 13.0 | 16.0 | 0.00 | 0.00 | 0.00 | 85 | 1009.7 |
| 20260506034934 | 78 | 118 | 13.0 | 17.0 | 0.00 | 0.00 | 0.00 | 85 | 1009.7 |
| 20260506034431 | 78 | 109 | 13.0 | 15.0 | 0.00 | 0.00 | 0.00 | 85 | 1009.7 |
| 20260506033928 | 78 | 112 | 12.0 | 14.0 | 0.00 | 0.00 | 0.00 | 85 | 1009.7 |
| 20260506033426 | 78 | 104 | 14.0 | 18.0 | 0.00 | 0.00 | 0.00 | 85 | 1009.7 |
| 20260506032922 | 78 | 123 | 12.0 | 18.0 | 0.00 | 0.00 | 0.00 | 84 | 1009.7 |
| 20260506032419 | 78 | 107 | 12.0 | 14.0 | 0.00 | 0.00 | 0.00 | 84 | 1009.7 |
| 20260506031916 | 79 | 106 | 15.0 | 18.0 | 0.00 | 0.00 | 0.00 | 84 | 1009.4 |
| 20260506031413 | 79 | 108 | 13.0 | 18.0 | 0.00 | 0.00 | 0.00 | 84 | 1009.4 |
| 20260506030911 | 79 | 111 | 14.0 | 16.0 | 0.00 | 0.00 | 0.00 | 83 | 1009.4 |
| 20260506030409 | 79 | 109 | 13.0 | 17.0 | 0.00 | 0.00 | 0.00 | 83 | 1009.4 |
| 20260506025905 | 79 | 111 | 12.0 | 14.0 | 0.00 | 0.00 | 0.00 | 83 | 1009.1 |
| 20260506025402 | 79 | 112 | 13.0 | 15.0 | 0.00 | 0.00 | 0.00 | 83 | 1009.1 |
| 20260506024859 | 79 | 106 | 12.0 | 15.0 | 0.00 | 0.00 | 0.00 | 82 | 1009.1 |
| 20260506024356 | 80 | 113 | 15.0 | 17.0 | 0.00 | 0.00 | 0.00 | 82 | 1008.7 |
| 20260506023852 | 80 | 110 | 13.0 | 18.0 | 0.00 | 0.00 | 0.00 | 81 | 1008.7 |
| 20260506023349 | 80 | 112 | 12.0 | 17.0 | 0.00 | 0.00 | 0.00 | 81 | 1008.7 |
| 20260506022845 | 80 | 107 | 12.0 | 17.0 | 0.00 | 0.00 | 0.00 | 80 | 1008.3 |
| 20260506022343 | 80 | 108 | 13.0 | 15.0 | 0.00 | 0.00 | 0.00 | 79 | 1008.3 |
| 20260506021841 | 81 | 108 | 18.0 | 21.0 | 0.00 | 0.00 | 0.00 | 78 | 1008.0 |
| 20260506021338 | 81 | 108 | 17.0 | 21.0 | 0.00 | 0.00 | 0.00 | 77 | 1008.0 |
| 20260506020834 | 81 | 106 | 10.0 | 14.0 | 0.00 | 0.00 | 0.00 | 76 | 1008.0 |
| 20260506020332 | 82 | 108 | 11.0 | 14.0 | 0.00 | 0.00 | 0.00 | 76 | 1008.0 |
| 20260506015830 | 82 | 103 | 13.0 | 15.0 | 0.00 | 0.00 | 0.00 | 75 | 1008.0 |
| 20260506015327 | 82 | 106 | 13.0 | 15.0 | 0.00 | 0.00 | 0.00 | 75 | 1008.0 |
| 20260506014824 | 82 | 116 | 12.0 | 13.0 | 0.00 | 0.00 | 0.00 | 75 | 1007.6 |
| 20260506014320 | 82 | 108 | 13.0 | 17.0 | 0.00 | 0.00 | 0.00 | 75 | 1008.0 |
| 20260506013817 | 82 | 102 | 11.0 | 13.0 | 0.00 | 0.00 | 0.00 | 75 | 1008.0 |
| 20260506013314 | 82 | 107 | 11.0 | 14.0 | 0.00 | 0.00 | 0.00 | 74 | 1008.0 |
| 20260506012811 | 82 | 109 | 13.0 | 16.0 | 0.00 | 0.00 | 0.00 | 74 | 1008.0 |
| 20260506012308 | 82 | 111 | 14.0 | 16.0 | 0.00 | 0.00 | 0.00 | 74 | 1007.6 |
| 20260506011805 | 83 | 104 | 13.0 | 16.0 | 0.00 | 0.00 | 0.00 | 73 | 1008.0 |
| 20260506011301 | 83 | 106 | 10.0 | 12.0 | 0.00 | 0.00 | 0.00 | 73 | 1008.0 |
| 20260506010800 | 83 | 107 | 9.0 | 11.0 | 0.00 | 0.00 | 0.00 | 73 | 1008.0 |
| 20260506010257 | 83 | 108 | 10.0 | 13.0 | 0.00 | 0.00 | 0.00 | 72 | 1008.0 |
| 20260506005754 | 83 | 113 | 8.0 | 10.0 | 0.00 | 0.00 | 0.00 | 72 | 1008.0 |
| 20260506005251 | 83 | 108 | 9.0 | 11.0 | 0.00 | 0.00 | 0.00 | 72 | 1008.0 |
| 20260506004746 | 83 | 104 | 7.0 | 10.0 | 0.00 | 0.00 | 0.00 | 72 | 1008.0 |
| 20260506004245 | 83 | 114 | 6.0 | 9.0 | 0.00 | 0.00 | 0.00 | 72 | 1007.6 |
| 20260506003740 | 83 | 112 | 6.0 | 8.0 | 0.00 | 0.00 | 0.00 | 72 | 1007.6 |
| 20260506003237 | 83 | 120 | 7.0 | 10.0 | 0.00 | 0.00 | 0.00 | 72 | 1007.6 |
| 20260506002733 | 84 | 108 | 9.0 | 11.0 | 0.00 | 0.00 | 0.00 | 72 | 1007.6 |
| 20260506002229 | 84 | 115 | 8.0 | 9.0 | 0.00 | 0.00 | 0.00 | 72 | 1007.6 |
| 20260506001725 | 84 | 102 | 9.0 | 11.0 | 0.00 | 0.00 | 0.00 | 71 | 1007.6 |
| 20260506001223 | 84 | 126 | 7.0 | 10.0 | 0.00 | 0.00 | 0.00 | 71 | 1007.3 |
| 20260506000719 | 84 | 102 | 10.0 | 12.0 | 0.00 | 0.00 | 0.00 | 71 | 1007.6 |
| 20260506000219 | 84 | 119 | 7.0 | 9.0 | 0.00 | 0.00 | 0.00 | 71 | 1007.3 |
| 20260505235714 | 84 | 152 | 7.0 | 12.0 | 0.00 | 0.00 | 0.00 | 71 | 1007.3 |
| 20260505235212 | 84 | 110 | 10.0 | 13.0 | 0.00 | 0.00 | 0.00 | 71 | 1007.3 |
| 20260505234708 | 84 | 107 | 14.0 | 18.0 | 0.00 | 0.00 | 0.00 | 70 | 1007.3 |
| 20260505234206 | 84 | 104 | 12.0 | 15.0 | 0.00 | 0.00 | 0.00 | 70 | 1007.3 |
| 20260505233702 | 84 | 107 | 10.0 | 14.0 | 0.00 | 0.00 | 0.00 | 70 | 1007.3 |
| 20260505233200 | 84 | 108 | 11.0 | 13.0 | 0.00 | 0.00 | 0.00 | 70 | 1007.3 |
| 20260505232657 | 84 | 161 | 9.0 | 13.0 | 0.00 | 0.00 | 0.00 | 69 | 1007.3 |
| 20260505232155 | 84 | 103 | 9.0 | 12.0 | 0.00 | 0.00 | 0.00 | 69 | 1007.3 |
| 20260505231651 | 84 | 115 | 7.0 | 10.0 | 0.00 | 0.00 | 0.00 | 69 | 1007.3 |
| 20260505231150 | 84 | 147 | 10.0 | 16.0 | 0.00 | 0.00 | 0.00 | 69 | 1007.3 |
| 20260505230648 | 84 | 133 | 12.0 | 18.0 | 0.00 | 0.00 | 0.00 | 69 | 1007.3 |
| 20260505230144 | 84 | 115 | 13.0 | 17.0 | 0.00 | 0.00 | 0.00 | 69 | 1006.9 |
| 20260505225640 | 84 | 133 | 12.0 | 15.0 | 0.00 | 0.00 | 0.00 | 69 | 1006.9 |
| 20260505225137 | 84 | 142 | 7.0 | 13.0 | 0.00 | 0.00 | 0.00 | 68 | 1007.3 |
| 20260505224633 | 84 | 142 | 4.0 | 8.0 | 0.00 | 0.00 | 0.00 | 69 | 1006.9 |
| 20260505224131 | 84 | 117 | 10.0 | 15.0 | 0.00 | 0.00 | 0.00 | 68 | 1006.9 |
| 20260505223628 | 85 | 128 | 5.0 | 11.0 | 0.00 | 0.00 | 0.00 | 67 | 1006.9 |
| 20260505223124 | 84 | 92 | 10.0 | 15.0 | 0.00 | 0.00 | 0.00 | 67 | 1007.3 |
| 20260505222621 | 84 | 125 | 13.0 | 17.0 | 0.00 | 0.00 | 0.00 | 68 | 1006.9 |
| 20260505222117 | 84 | 128 | 12.0 | 21.0 | 0.00 | 0.00 | 0.00 | 67 | 1006.9 |
| 20260505221614 | 84 | 141 | 9.0 | 16.0 | 0.00 | 0.00 | 0.00 | 68 | 1006.9 |
| 20260505221110 | 85 | 107 | 13.0 | 18.0 | 0.00 | 0.00 | 0.00 | 67 | 1007.3 |
| 20260505220608 | 85 | 107 | 8.0 | 15.0 | 0.00 | 0.00 | 0.00 | 66 | 1006.9 |
| 20260505220106 | 84 | 116 | 13.0 | 17.0 | 0.00 | 0.00 | 0.00 | 68 | 1007.3 |
| 20260505215603 | 84 | 120 | 9.0 | 13.0 | 0.00 | 0.00 | 0.00 | 68 | 1007.3 |
| 20260505215101 | 84 | 112 | 12.0 | 17.0 | 0.00 | 0.00 | 0.00 | 69 | 1007.3 |
| 20260505214559 | 84 | 113 | 13.0 | 16.0 | 0.00 | 0.00 | 0.00 | 68 | 1007.6 |
| 20260505214056 | 84 | 119 | 11.0 | 17.0 | 0.00 | 0.00 | 0.00 | 68 | 1007.6 |
| 20260505213553 | 85 | 127 | 12.0 | 19.0 | 0.00 | 0.00 | 0.00 | 66 | 1007.3 |
| 20260505213049 | 86 | 138 | 8.0 | 14.0 | 0.00 | 0.00 | 0.00 | 64 | 1007.6 |
| 20260505212546 | 86 | 157 | 6.0 | 11.0 | 0.00 | 0.00 | 0.00 | 65 | 1007.6 |
| 20260505212044 | 84 | 153 | 9.0 | 14.0 | 0.00 | 0.00 | 0.00 | 66 | 1007.6 |
| 20260505211540 | 84 | 138 | 11.0 | 18.0 | 0.00 | 0.00 | 0.00 | 67 | 1007.6 |
| 20260505211037 | 85 | 110 | 15.0 | 21.0 | 0.00 | 0.00 | 0.00 | 65 | 1007.6 |
| 20260505210534 | 84 | 118 | 13.0 | 17.0 | 0.00 | 0.00 | 0.00 | 67 | 1007.6 |
| 20260505210031 | 84 | 135 | 10.0 | 15.0 | 0.00 | 0.00 | 0.00 | 66 | 1007.6 |
| 20260505205529 | 84 | 116 | 10.0 | 15.0 | 0.00 | 0.00 | 0.00 | 66 | 1008.0 |
| 20260505205026 | 84 | 84 | 7.0 | 16.0 | 0.00 | 0.00 | 0.00 | 68 | 1008.0 |
| 20260505204523 | 84 | 145 | 9.0 | 15.0 | 0.00 | 0.00 | 0.00 | 68 | 1008.0 |
| 20260505204021 | 83 | 117 | 7.0 | 14.0 | 0.00 | 0.00 | 0.00 | 69 | 1008.3 |
| 20260505203517 | 83 | 119 | 7.0 | 11.0 | 0.00 | 0.00 | 0.00 | 70 | 1008.7 |
| 20260505203014 | 83 | 152 | 10.0 | 16.0 | 0.00 | 0.00 | 0.00 | 70 | 1008.7 |
| 20260505202510 | 83 | 127 | 2.0 | 5.0 | 0.00 | 0.00 | 0.00 | 71 | 1008.7 |
| 20260505202006 | 82 | 135 | 7.0 | 11.0 | 0.00 | 0.00 | 0.00 | 72 | 1009.1 |
| 20260505201504 | 82 | 173 | 7.0 | 13.0 | 0.00 | 0.00 | 0.00 | 72 | 1009.1 |
| 20260505201001 | 82 | 124 | 10.0 | 15.0 | 0.00 | 0.00 | 0.00 | 72 | 1009.1 |
| 20260505200459 | 82 | 150 | 6.0 | 13.0 | 0.00 | 0.00 | 0.00 | 72 | 1009.1 |
| 20260505195954 | 82 | 183 | 4.0 | 7.0 | 0.00 | 0.00 | 0.00 | 72 | 1009.1 |
| 20260505195451 | 81 | 182 | 7.0 | 11.0 | 0.00 | 0.00 | 0.00 | 73 | 1009.1 |
| 20260505194949 | 82 | 132 | 12.0 | 19.0 | 0.00 | 0.00 | 0.00 | 73 | 1009.1 |
| 20260505194446 | 82 | 165 | 4.0 | 11.0 | 0.00 | 0.00 | 0.00 | 72 | 1009.4 |
| 20260505193946 | 81 | 114 | 10.0 | 18.0 | 0.00 | 0.00 | 0.00 | 72 | 1009.1 |
| 20260505193444 | 81 | 89 | 7.0 | 13.0 | 0.00 | 0.00 | 0.00 | 72 | 1009.1 |
| 20260505192941 | 81 | 142 | 12.0 | 19.0 | 0.00 | 0.00 | 0.00 | 72 | 1009.1 |
| 20260505192440 | 81 | 142 | 11.0 | 16.0 | 0.00 | 0.00 | 0.00 | 72 | 1009.1 |
| 20260505191937 | 82 | 105 | 7.0 | 13.0 | 0.00 | 0.00 | 0.00 | 72 | 1009.4 |
| 20260505191435 | 81 | 151 | 7.0 | 12.0 | 0.00 | 0.00 | 0.00 | 74 | 1009.4 |
| 20260505190932 | 81 | 135 | 10.0 | 14.0 | 0.00 | 0.00 | 0.00 | 74 | 1009.4 |
| 20260505190427 | 80 | 159 | 7.0 | 14.0 | 0.00 | 0.00 | 0.00 | 74 | 1009.4 |
| 20260505185922 | 81 | 233 | 4.0 | 12.0 | 0.00 | 0.00 | 0.00 | 74 | 1009.7 |
| 20260505185420 | 80 | 126 | 9.0 | 15.0 | 0.00 | 0.00 | 0.00 | 75 | 1009.7 |
| 20260505184916 | 80 | 182 | 8.0 | 13.0 | 0.00 | 0.00 | 0.00 | 74 | 1009.7 |
| 20260505184413 | 80 | 136 | 8.0 | 13.0 | 0.00 | 0.00 | 0.00 | 75 | 1009.7 |
| 20260505183910 | 79 | 119 | 10.0 | 14.0 | 0.00 | 0.00 | 0.00 | 77 | 1009.7 |
| 20260505183407 | 79 | 168 | 6.0 | 11.0 | 0.00 | 0.00 | 0.00 | 77 | 1010.1 |
| 20260505182903 | 79 | 166 | 5.0 | 10.0 | 0.00 | 0.00 | 0.00 | 76 | 1010.1 |
| 20260505182400 | 80 | 141 | 7.0 | 15.0 | 0.00 | 0.00 | 0.00 | 76 | 1010.1 |
| 20260505181857 | 80 | 349 | 1.0 | 4.0 | 0.00 | 0.00 | 0.00 | 76 | 1010.1 |
| 20260505181354 | 79 | 125 | 11.0 | 16.0 | 0.00 | 0.00 | 0.00 | 78 | 1010.1 |
| 20260505180851 | 78 | 213 | 8.0 | 11.0 | 0.00 | 0.00 | 0.00 | 79 | 1010.1 |
| 20260505180347 | 78 | 145 | 6.0 | 11.0 | 0.00 | 0.00 | 0.00 | 78 | 1010.4 |
| 20260505175844 | 77 | 180 | 4.0 | 8.0 | 0.00 | 0.00 | 0.00 | 80 | 1010.4 |
| 20260505175340 | 77 | 144 | 10.0 | 14.0 | 0.00 | 0.00 | 0.00 | 80 | 1010.4 |
| 20260505174837 | 77 | 180 | 8.0 | 12.0 | 0.00 | 0.00 | 0.00 | 81 | 1010.8 |
| 20260505174335 | 77 | 248 | 5.0 | 11.0 | 0.00 | 0.00 | 0.00 | 81 | 1010.8 |
| 20260505173830 | 76 | 173 | 2.0 | 8.0 | 0.00 | 0.00 | 0.00 | 82 | 1010.8 |
| 20260505173327 | 76 | 202 | 7.0 | 13.0 | 0.00 | 0.00 | 0.00 | 82 | 1010.8 |
| 20260505172824 | 76 | 205 | 9.0 | 13.0 | 0.00 | 0.00 | 0.00 | 83 | 1010.8 |
| 20260505172322 | 76 | 178 | 9.0 | 12.0 | 0.00 | 0.00 | 0.00 | 82 | 1010.8 |
| 20260505171821 | 76 | 191 | 5.0 | 8.0 | 0.00 | 0.00 | 0.00 | 83 | 1010.8 |
| 20260505171319 | 76 | 175 | 6.0 | 11.0 | 0.00 | 0.00 | 0.00 | 83 | 1010.8 |
| 20260505170815 | 76 | 175 | 6.0 | 11.0 | 0.00 | 0.00 | 0.00 | 83 | 1010.8 |
| 20260505170312 | 76 | 134 | 4.0 | 9.0 | 0.00 | 0.00 | 0.00 | 83 | 1010.8 |
| 20260505165807 | 75 | 220 | 11.0 | 15.0 | 0.00 | 0.00 | 0.00 | 83 | 1010.8 |
| 20260505165306 | 76 | 187 | 6.0 | 10.0 | 0.00 | 0.00 | 0.00 | 82 | 1010.8 |
| 20260505164759 | 76 | 178 | 5.0 | 11.0 | 0.00 | 0.00 | 0.00 | 82 | 1010.8 |
| 20260505164256 | 75 | 142 | 4.0 | 8.0 | 0.00 | 0.00 | 0.00 | 83 | 1010.8 |
| 20260505163754 | 75 | 177 | 11.0 | 15.0 | 0.00 | 0.00 | 0.00 | 83 | 1010.8 |
| 20260505163253 | 75 | 138 | 5.0 | 13.0 | 0.00 | 0.00 | 0.00 | 83 | 1010.8 |
| 20260505162750 | 75 | 132 | 6.0 | 9.0 | 0.00 | 0.00 | 0.00 | 85 | 1010.8 |
| 20260505162246 | 74 | 184 | 6.0 | 10.0 | 0.00 | 0.00 | 0.00 | 86 | 1011.1 |
| 20260505161744 | 74 | 210 | 10.0 | 14.0 | 0.00 | 0.00 | 0.00 | 86 | 1011.1 |
| 20260505161241 | 74 | 286 | 1.0 | 2.0 | 0.00 | 0.00 | 0.00 | 87 | 1010.8 |
| 20260505160738 | 73 | 216 | 6.0 | 10.0 | 0.00 | 0.00 | 0.00 | 87 | 1010.8 |
| 20260505160236 | 73 | 202 | 9.0 | 11.0 | 0.00 | 0.00 | 0.00 | 87 | 1011.1 |
| 20260505153215 | 73 | 182 | 5.0 | 12.0 | 0.00 | 0.00 | 0.00 | 88 | 1011.1 |
| 20260505152712 | 73 | 137 | 8.0 | 14.0 | 0.00 | 0.00 | 0.00 | 87 | 1011.1 |
| 20260505152208 | 73 | 180 | 3.0 | 8.0 | 0.00 | 0.00 | 0.00 | 88 | 1011.1 |
| 20260505151703 | 73 | 164 | 6.0 | 9.0 | 0.00 | 0.00 | 0.00 | 88 | 1011.1 |
| 20260505151201 | 73 | 176 | 9.0 | 14.0 | 0.00 | 0.00 | 0.00 | 88 | 1010.8 |
| 20260505150657 | 73 | 125 | 8.0 | 15.0 | 0.00 | 0.00 | 0.00 | 89 | 1010.8 |
| 20260505150155 | 72 | 188 | 5.0 | 9.0 | 0.00 | 0.00 | 0.00 | 89 | 1010.8 |
| 20260505140628 | 72 | 165 | 8.0 | 15.0 | 0.00 | 0.00 | 0.00 | 90 | 1010.8 |
| 20260505140125 | 72 | 169 | 4.0 | 8.0 | 0.00 | 0.00 | 0.00 | 90 | 1010.8 |
| 20260505124543 | 71 | 133 | 7.0 | 11.0 | 0.00 | 0.00 | 0.00 | 90 | 1009.7 |
| 20260505124039 | 71 | 129 | 6.0 | 9.0 | 0.00 | 0.00 | 0.00 | 91 | 1009.7 |
| 20260505123536 | 71 | 180 | 6.0 | 12.0 | 0.00 | 0.00 | 0.00 | 90 | 1009.7 |
| 20260505123032 | 71 | 142 | 8.0 | 12.0 | 0.00 | 0.00 | 0.00 | 91 | 1009.7 |
| 20260505122529 | 71 | 171 | 5.0 | 9.0 | 0.00 | 0.00 | 0.00 | 91 | 1009.7 |
| 20260505122026 | 71 | 104 | 9.0 | 12.0 | 0.00 | 0.00 | 0.00 | 91 | 1009.7 |
| 20260505121523 | 71 | 140 | 10.0 | 14.0 | 0.00 | 0.00 | 0.00 | 91 | 1009.4 |
| 20260505121019 | 71 | 153 | 8.0 | 13.0 | 0.00 | 0.00 | 0.00 | 91 | 1009.7 |
| 20260505120516 | 71 | 170 | 8.0 | 15.0 | 0.00 | 0.00 | 0.00 | 90 | 1009.7 |
| 20260505120011 | 71 | 113 | 7.0 | 13.0 | 0.00 | 0.00 | 0.00 | 90 | 1009.4 |
| 20260505115506 | 71 | 157 | 8.0 | 13.0 | 0.00 | 0.00 | 0.00 | 90 | 1009.7 |
| 20260505115004 | 71 | 180 | 5.0 | 9.0 | 0.00 | 0.00 | 0.00 | 90 | 1009.7 |
| 20260505114500 | 71 | 159 | 9.0 | 11.0 | 0.00 | 0.00 | 0.00 | 90 | 1009.4 |
| 20260505113957 | 71 | 122 | 9.0 | 15.0 | 0.00 | 0.00 | 0.00 | 89 | 1009.4 |
| 20260505113454 | 71 | 116 | 8.0 | 17.0 | 0.00 | 0.00 | 0.00 | 89 | 1009.4 |
| 20260505112949 | 71 | 150 | 8.0 | 12.0 | 0.00 | 0.00 | 0.00 | 89 | 1009.4 |
| 20260505112447 | 71 | 108 | 7.0 | 13.0 | 0.00 | 0.00 | 0.00 | 89 | 1009.7 |
| 20260505111944 | 71 | 140 | 5.0 | 14.0 | 0.00 | 0.00 | 0.00 | 89 | 1009.4 |
| 20260505111438 | 71 | 177 | 7.0 | 13.0 | 0.00 | 0.00 | 0.00 | 89 | 1009.7 |
| 20260505110934 | 71 | 169 | 8.0 | 15.0 | 0.00 | 0.00 | 0.00 | 88 | 1009.7 |
| 20260505110431 | 71 | 171 | 8.0 | 13.0 | 0.00 | 0.00 | 0.00 | 88 | 1009.7 |
| 20260505101902 | 71 | 134 | 6.0 | 13.0 | 0.00 | 0.00 | 0.00 | 89 | 1009.7 |
| 20260505101357 | 71 | 128 | 13.0 | 18.0 | 0.00 | 0.00 | 0.00 | 88 | 1009.7 |
| 20260505100853 | 71 | 121 | 9.0 | 14.0 | 0.00 | 0.00 | 0.00 | 88 | 1009.7 |
| 20260505100350 | 71 | 130 | 9.0 | 14.0 | 0.00 | 0.00 | 0.00 | 88 | 1009.7 |
| 20260505095845 | 71 | 142 | 6.0 | 11.0 | 0.00 | 0.00 | 0.00 | 88 | 1009.7 |
| 20260505095343 | 71 | 116 | 12.0 | 17.0 | 0.00 | 0.00 | 0.00 | 88 | 1009.7 |
| 20260505094839 | 71 | 156 | 8.0 | 14.0 | 0.00 | 0.00 | 0.00 | 88 | 1009.7 |
| 20260505094336 | 71 | 120 | 11.0 | 14.0 | 0.00 | 0.00 | 0.00 | 88 | 1009.7 |
| 20260505093831 | 71 | 160 | 6.0 | 10.0 | 0.00 | 0.00 | 0.00 | 88 | 1009.7 |
| 20260505093330 | 71 | 60 | 4.0 | 7.0 | 0.00 | 0.00 | 0.00 | 88 | 1009.7 |
| 20260505092826 | 71 | 132 | 8.0 | 13.0 | 0.00 | 0.00 | 0.00 | 87 | 1009.7 |
| 20260505092325 | 71 | 114 | 9.0 | 13.0 | 0.00 | 0.00 | 0.00 | 87 | 1009.7 |
| 20260505091821 | 71 | 135 | 8.0 | 12.0 | 0.00 | 0.00 | 0.00 | 87 | 1009.7 |
| 20260505091319 | 71 | 120 | 11.0 | 16.0 | 0.00 | 0.00 | 0.00 | 87 | 1009.7 |
| 20260505090817 | 71 | 113 | 9.0 | 15.0 | 0.00 | 0.00 | 0.00 | 87 | 1009.7 |
| 20260505090315 | 71 | 133 | 9.0 | 16.0 | 0.00 | 0.00 | 0.00 | 87 | 1009.7 |
| 20260505085812 | 71 | 131 | 8.0 | 15.0 | 0.00 | 0.00 | 0.00 | 87 | 1009.7 |
| 20260505085310 | 71 | 131 | 6.0 | 12.0 | 0.00 | 0.00 | 0.00 | 87 | 1010.1 |
| 20260505084807 | 71 | 143 | 10.0 | 16.0 | 0.00 | 0.00 | 0.00 | 87 | 1010.1 |
| 20260505084306 | 71 | 129 | 7.0 | 14.0 | 0.00 | 0.00 | 0.00 | 87 | 1009.7 |
| 20260505083803 | 71 | 91 | 6.0 | 18.0 | 0.00 | 0.00 | 0.00 | 86 | 1009.7 |
| 20260505083300 | 71 | 121 | 8.0 | 16.0 | 0.00 | 0.00 | 0.00 | 86 | 1010.1 |
| 20260505082756 | 71 | 129 | 9.0 | 15.0 | 0.00 | 0.00 | 0.00 | 86 | 1010.4 |
| 20260505082253 | 71 | 96 | 6.0 | 17.0 | 0.00 | 0.00 | 0.00 | 87 | 1010.4 |
| 20260505081749 | 71 | 169 | 9.0 | 15.0 | 0.00 | 0.00 | 0.00 | 87 | 1010.4 |
| 20260505081246 | 71 | 118 | 17.0 | 23.0 | 0.00 | 0.00 | 0.00 | 87 | 1010.1 |
| 20260505080743 | 71 | 147 | 9.0 | 19.0 | 0.00 | 0.00 | 0.00 | 87 | 1010.4 |